Regional Weather Roundup
Issued by NWS

Home | Current Version | Previous Version | Graphics & Text | Print | Product List | Glossary On
Versions: 1 2 3 4 5 6 7 8 9 10 11 12 13 14 15 16 17 18 19 20 21 22 23 24 25 26 27 28 29 30 31 32 33 34 35 36 37 38 39 40 41 42 43 44 45 46 47
000
ASUS45 KPSR 231410
RWRAZ

ARIZONA REGIONAL HOURLY WEATHER ROUNDUP
NATIONAL WEATHER SERVICE TUCSON AZ
700 AM MST TUE MAY 23 2017

NOTE: FAIR INDICATES FEW OR NO CLOUDS BELOW 12,000 FEET WITH NO
SIGNIFICANT WEATHER AND/OR OBSTRUCTIONS TO VISIBILITY.

AZZ001>003-036-231500-
NORTHWEST ARIZONA

CITY           SKY/WX    TMP DP  RH WIND       PRES   REMARKS
BULLHEAD CITY  SUNNY     81  37  21 CALM      29.90R
KINGMAN        SUNNY     73  31  21 CALM      30.09R
$$

AZZ004>008-015-016-018-231500-
NORTH CENTRAL ARIZONA

CITY           SKY/WX    TMP DP  RH WIND       PRES   REMARKS
GRAND CANYON   SUNNY     58  30  34 NE12      30.28R
WILLIAMS       SUNNY     57  28  33 E8        30.27S
PRESCOTT       SUNNY     59  32  36 CALM      30.17R
FLAGSTAFF      SUNNY     57  27  31 NE17      30.28R
PAYSON         SUNNY     68  25  19 N15G22    30.17S
PAGE           SUNNY     67  37  33 N6        30.20R
$$

AZZ009>014-017-231500-
NORTHEAST ARIZONA

CITY           SKY/WX    TMP DP  RH WIND       PRES   REMARKS
WINSLOW        SUNNY     54  24  31 CALM      30.21R
SAINT JOHNS    SUNNY     53  23  31 CALM      30.20R
WINDOW ROCK    SUNNY     51  30  44 CALM      30.25R
SHOW LOW       SUNNY     50  23  34 CALM      30.25R
$$

AZZ023-231500-
GREATER PHOENIX AREA

CITY           SKY/WX    TMP DP  RH WIND       PRES   REMARKS
PHOENIX        SUNNY     82  32  16 E6        29.86R
BUCKEYE        SUNNY     84  25  11 N8        29.87R
GLENDALE       SUNNY     82  32  16 N6        29.89R
LUKE AFB       SUNNY     82  33  17 N10       29.86R
DEER VALLEY    SUNNY     79  30  16 NW3       29.89R
SCOTTSDALE     SUNNY     79  40  24 W3        29.90R
MESA-GATEWAY   SUNNY     72  34  25 SE6       29.89R
CHANDLER       SUNNY     75  34  22 NE8       29.87R
$$

AZZ027-028-231500-
SOUTHWEST MARICOPA COUNTY AND PINAL COUNTY

CITY           SKY/WX    TMP DP  RH WIND       PRES   REMARKS
CASA GRANDE    SUNNY     75  32  20 E5        29.90R
$$

AZZ503-504-507>509-231500-
SOUTHEAST ARIZONA

CITY           SKY/WX    TMP DP  RH WIND       PRES   REMARKS
TUCSON         SUNNY     73  25  16 SE10      30.00R
DAVIS-MONTHAN  SUNNY     73  25  16 SE8       29.99R
RYAN FIELD     SUNNY     70  28  21 CALM      29.99R
NOGALES        SUNNY     64  25  22 CALM      30.07R
SIERRA VISTA   SUNNY     75  21  13 W8        30.13R
DOUGLAS        SUNNY     65  19  17 SW3       30.09R
SAFFORD        SUNNY     71  24  17 CALM      30.01R
$$

AZZ020-021-025-026-031-231500-
SOUTHWEST ARIZONA

CITY           SKY/WX    TMP DP  RH WIND       PRES   REMARKS
YUMA           MOSUNNY   82  44  26 CALM      29.82R
$$

CAZ031-033-041-043-047-048-061-231500-
SOUTHERN CALIFORNIA

CITY           SKY/WX    TMP DP  RH WIND       PRES   REMARKS
DOWNTOWN L.A.  SUNNY     62  56  80 W3        29.95R
L.A. AIRPORT   PTSUNNY   60  58  92 W7        29.95S FOG
SAN DIEGO      CLOUDY    63  59  87 N6        29.96R
BURBANK        SUNNY     63  54  72 CALM      29.95R
ONTARIO        MOSUNNY   68  57  68 CALM      29.95S
RIVERSIDE      SUNNY     64  57  78 CALM      29.95S
PALM SPRINGS   SUNNY     84  50  30 CALM      29.86R
EL CENTRO NAS  MOSUNNY   78  36  21 CALM      29.83R
IMPERIAL       SUNNY     79  43  27 CALM      29.81R
BLYTHE         SUNNY     79  35  20 CALM      29.85R
NEEDLES        SUNNY     82  30  15 SW3       29.91R
$$

NVZ020-UTZ003-231500-
SOUTHERN NEVADA-UTAH

CITY           SKY/WX    TMP DP  RH WIND       PRES   REMARKS
LAS VEGAS      SUNNY     79  32  18 CALM      30.01R
SALT LAKE CITY MOSUNNY   63  43  48 S8        30.18S
$$

NMZ009-TXZ055-231500-
NEW MEXICO-WEST TEXAS

CITY           SKY/WX    TMP DP  RH WIND       PRES   REMARKS
ALBUQUERQUE    MOSUNNY   58  43  57 NE7       30.16R
EL PASO        SUNNY     71  33  24 N9        30.06R
$$


........................KEY........................
SKY/WX - SKY CONDITION/WEATHER
TMP    - TEMPERATURE IN FAHRENHEIT
DP     - DEWPOINT IN FAHRENHEIT
RH     - RELATIVE HUMIDITY IN PERCENT
WIND   - DIRECTION AND SPEED IN MILES PER HOUR (MPH)
VRB    - VARIABLE WIND DIRECTION
PRES   - MEAN SEA LEVEL PRESSURE IN INCHES OF MERCURY
         F - FALLING PRESSURE   R - RISING PRESSURE
         S - STEADY PRESSURE
VSB    - VISIBILITY IN MILES
HX     - HEAT INDEX IN FAHRENHEIT
WCI    - WIND CHILL INDEX IN FAHRENHEIT
TC     - TEMPERATURE IN CELSIUS WHICH IS ALSO KNOWN AS
         TEMPERATURE IN CENTIGRADE
AFB    - AIR FORCE BASE
         LUKE AFB IS LUKE AIR FORCE BASE
         DAVIS-MONTHAN IS DAVIS-MONTHAN AIR FORCE BASE
NAS    - NAVAL AIR STATION
         EL CENTRO NAS IS EL CENTRO NAVAL AIR STATION
N/A    - NOT AVAILABLE





USA.gov is the U.S. government's official web portal to all federal, state and local government web resources and services.